Aérodrome :
LOGIN :

S'inscrire | Disclaimer

   EN    FR    IT 

 










Légende :    VFR   VFR Marginal   IFR   IFR Intensif   IFR Très Intensif
Visi : 
Plafond : 
>= 8 km
>= 3000ft
5 à 8 km
1000 à 3000 ft
1500m à 5 km
500 à 1000 ft
800 à 1500m
200 à 500 ft
< 800m
< 200 ft
Symboles :   Orages  Brouillard  Fortes neiges  Fortes précipitations  Vent > 20 kt
SIGMETs :   Divers  Orages  Givrage  Turbulence  Onde Orograph.  Cendres Volcan.







- Altitude de l'aérodrome : 313 ft
- Voir les cartes d'approche


LFQA - Reims-Prunay

DERNIER METAR :
  • 271330Z AUTO 22009KT 200V260 CAVOK 30/19 Q1016

METARs EXPIRÉS :
  • 271300Z AUTO 22009KT 170V270 CAVOK 30/20 Q1016
  • 271230Z AUTO 15008KT CAVOK 30/19 Q1016
  • 271200Z AUTO 16009KT CAVOK 29/19 Q1016
  • 271130Z AUTO 15010KT 120V180 CAVOK 28/19 Q1016
  • 271100Z AUTO 15008KT 120V190 CAVOK 28/18 Q1016
  • 271030Z AUTO 15006KT 110V190 CAVOK 27/18 Q1016

TAF N/A
Pas de NOTAMs connus pour ce terrain.



MET'MAP, la Météo Aéronautique d'un coup d'oeil ! - Copyright ORBIFLY Décembre 2007 - Disclaimer

ORBIFLY MET'MAP TEAM :

Programmation & Développement : Alexandra Zaïnal
Conception & Développement : Baudouin d'Aumeries
Co-Programmation & Développement : Marc-Olivier Méhu
Soutien technique & logistique : Manuel Goepfert

Contact : metmap@orbifly.com




SOURCES & CREDITS :

   NOAA